Tracking 28792 objects as of 24-Apr-2024
HD Live streaming from Space Station
objects crossing your sky now

THOR AGENA B DEB

Track THOR AGENA B DEB now!
10-day predictions


NORAD ID: 2092
Int'l Code: 1965-098H
Perigee: 509.6 km
Apogee: 2,590.2 km
Inclination: 79.9 °
Period: 116.9 minutes
Semi major axis: 7920 km
RCS: 0.1037 m2 (medium)
Launch date: November 29, 1965
Source: United States (US)
Launch site: AIR FORCE WESTERN TEST RANGE (AFWTR)

Note: This is SATELLITE DEBRIS
Your satellite tracking list
Your tracking list is empty




NASA's NSSDC Master Catalog

Two Line Element Set (TLE):
1  2092U 65098H   24114.96402721  .00001646  00000-0  54527-3 0  9997
2  2092  79.8614 309.8045 1313381 274.2504  70.9980 12.31512264583391
Source of the keplerian elements: AFSPC